Regional Weather Roundup
Issued by NWS

Home | Current Version | Previous Version | Graphics & Text | Print | Product List | Glossary On
Versions: 1 2 3 4 5 6 7 8 9 10 11 12 13 14 15 16 17 18 19 20 21 22 23 24 25 26 27 28 29 30 31 32 33 34 35 36 37 38 39 40 41 42 43 44 45 46 47 48 49 50
000
ASUS43 KLSX 310907
RWRMO

WEATHER SUMMARY FOR MISSOURI
NATIONAL WEATHER SERVICE SPRINGFIELD MO
400 AM CDT FRI JUL 31 2015

NOTE: "FAIR" INDICATES FEW OR NO CLOUDS BELOW 12,000 FEET WITH NO
       SIGNIFICANT WEATHER AND/OR OBSTRUCTIONS TO VISIBILITY.
       CURRENT SKY AND/OR WEATHER CONDITIONS ARE NOT AVAILABLE FOR
       CHILLICOTHE AND FARMINGTON.

MOZ001>031-035>038-043-044-053-054-311000-
...NORTHERN AND WESTERN MISSOURI...

CITY           SKY/WX    TMP DP  RH WIND       PRES   REMARKS
KANSAS CTY INT PTCLDY    66  62  87 S6        30.15F
KANSAS C DTWN  PTCLDY    68  65  90 CALM      30.15F
LEE`S SUMMIT   CLEAR     64  61  90 SW5       30.17S
ST JOSEPH      FOG       65  64  97 S3        30.15S VSB 3/4
CHILLICOTHE      N/A     67  66  97 CALM      30.16S
KIRKSVILLE     CLEAR     67  63  87 W3        30.15F

$$
MOZ066>068-077>081-088>096-101>105-311000-
...SOUTHWEST MISSOURI...

CITY           SKY/WX    TMP DP  RH WIND       PRES   REMARKS
SPRINGFIELD    PTCLDY    71  63  75 CALM      30.16S
JOPLIN         MOCLDY    72  65  78 E5        30.15S

$$
MOZ032>034-039>042-045>050-055>058-069>072-311000-
...CENTRAL MISSOURI...

CITY           SKY/WX    TMP DP  RH WIND       PRES   REMARKS
COLUMBIA       CLEAR     70  65  84 W6        30.15F
JEFFERSON CITY MOCLDY    66  65  96 NW3       30.14S FOG
ROLLA          CLEAR     65  60  84 CALM      30.14F HAZE
SEDALIA        CLEAR     68  63  84 SW3       30.16F
WHITEMAN AFB   CLEAR     65  62  91 S3        30.15S
WARRENSBURG    PTCLDY    63  61  94 SW3       30.15S
OSAGE BEACH    CLEAR     63  61  94 CALM      30.16S

$$
MOZ051-052-059>065-311000-
...EAST CENTRAL MISSOURI...

CITY           SKY/WX    TMP DP  RH WIND       PRES   REMARKS
ST LOUIS INTL  PTCLDY    72  65  78 W3        30.12F
SPIRIT OF STL  CLEAR     67  67 100 CALM      30.11F
ST CHARLES     CLEAR     69  66  90 NW3       30.10F

$$
MOZ072>076-082>087-097>100-106>115-311000-
...SOUTH CENTRAL AND SOUTHEAST MISSOURI...

CITY           SKY/WX    TMP DP  RH WIND       PRES   REMARKS
CAPE GIRARDEAU CLEAR     65  64  97 CALM      30.09S
FARMINGTON     CLEAR     64  61  88 CALM      30.17S
POPLAR BLUFF   CLEAR     67  64  90 NW5       30.09S
WEST PLAINS    CLEAR     66  60  81 NW3       30.17S

$$


USA.gov is the U.S. government's official web portal to all federal, state and local government web resources and services.